Location: Buffign�court
(47.8126°N, 6.0176°E)
Time: 15:31:54
(UTC+00:00)

SL-16 R/B - Pass Details

Date: 16 June 2021
Orbit: 842 x 847 km, 71.0° (Epoch: 03 August)

Event Time Altitude Azimuth Distance (km) Brightness Sun altitude
Exits shadow 23:20:41 27° 141° (SE) 1,578 3.2 -18.7°
Maximum altitude 23:22:34 33° 106° (ESE) 1,379 3.1 -18.7°
Drops below altitude 10° 23:27:35 10° 43° (NE) 2,472 5.2 -18.8°
Sets 23:30:14 0° 35° (NE) 3,411 6.2 -18.8°
